Date String (YYYY-MM-DD hh:mm:ss) UTC,Instrument flags,absolute air pressure of the measurement (hPa),sample flow rate (lpm),inlet stack bypass flow (lpm),air temperature of the measurement (°C),ambient temperature measured by the external sensor (°C),aerosol sample conditioner tube jacket temperature (°C),OPC LED temperature (°C),internal box temperature (°C),relative humidity of the measurement (%),span deviation,mass concentration of particles derived from Lorenz-Mie calculation of OPC scattering (μg/m³),mass concentration of particles derived from Lorenz-Mie calculation of OPC scattering (μg/m³),mass concentration of particles derived from Lorenz-Mie calculation of OPC scattering (μg/m³)
DateTimeUTC,F1_M11,P_M11,Q1_M11,Q2_M11,T1_M11,T2_M11,T3_M11,T4_M11,T5_M11,U1_M11,ZSPAN_M11,X2_M11,X0_M11,X1_M11
2023-12-22 13:00:00,SystemResetWarning,0832.0,5.01,000.00,022.2,021.1,000.0,030.6,023.5,14.1,0000.0,0001.03,0001.33,0000.88
2023-12-22 13:01:00,SystemResetWarning,0832.0,5.00,000.00,022.2,021.0,000.0,030.6,023.5,14.0,0000.0,0001.02,0001.29,0000.87
2023-12-22 13:02:00,SystemResetWarning,0832.0,5.00,000.00,022.1,021.0,000.0,030.6,023.5,14.0,0000.0,0000.99,0001.26,0000.86
2023-12-22 13:03:00,SystemResetWarning,0832.0,5.00,000.00,022.1,021.0,000.0,030.6,023.4,14.0,0000.0,0001.00,0001.30,0000.86
2023-12-22 13:04:00,SystemResetWarning,0832.0,5.00,000.00,022.1,021.0,000.0,030.6,023.4,14.0,0000.0,0000.99,0001.29,0000.85
2023-12-22 13:05:00,SystemResetWarning,0832.0,5.00,000.00,022.1,021.0,000.0,030.5,023.4,14.0,0000.0,0000.96,0001.21,0000.85
2023-12-22 13:06:00,SystemResetWarning,0832.0,5.00,000.00,022.1,021.0,000.0,030.5,023.4,13.9,0000.0,0000.94,0001.16,0000.85
2023-12-22 13:07:00,SystemResetWarning,0832.0,5.00,000.00,022.1,021.0,000.0,030.5,023.4,13.9,0000.0,0000.92,0001.14,0000.84
2023-12-22 13:08:00,SystemResetWarning,0832.0,5.01,000.00,022.1,021.0,000.0,030.5,023.4,13.9,0000.0,0000.92,0001.16,0000.83
2023-12-22 13:09:00,SystemResetWarning,0832.0,5.01,000.00,022.1,021.0,000.0,030.5,023.4,13.9,0000.0,0000.91,0001.17,0000.82
2023-12-22 13:10:00,SystemResetWarning,0832.0,5.01,000.00,022.1,021.0,000.0,030.5,023.3,14.0,0000.0,0000.90,0001.15,0000.81
2023-12-22 13:11:00,SystemResetWarning,0832.0,5.00,000.00,022.1,021.0,000.0,030.5,023.3,14.0,0000.0,0000.90,0001.16,0000.80
2023-12-22 13:12:00,SystemResetWarning,0832.0,5.00,000.00,022.0,021.0,000.0,030.5,023.3,14.0,0000.0,0000.90,0001.21,0000.81
2023-12-22 13:13:00,SystemResetWarning,0832.1,5.00,000.00,022.0,021.0,000.0,030.5,023.3,14.1,0000.0,0000.92,0001.26,0000.82
2023-12-22 13:14:00,SystemResetWarning,0832.1,5.00,000.00,022.0,020.9,000.0,030.4,023.3,14.0,0000.0,0000.90,0001.20,0000.81
2023-12-22 13:15:00,SystemResetWarning,0832.0,4.99,000.00,022.0,020.9,000.0,030.4,023.3,14.0,0000.0,0000.95,0001.30,0000.84
2023-12-22 13:16:00,SystemResetWarning,0832.0,5.00,000.00,022.0,020.9,000.0,030.4,023.2,14.0,0000.0,0000.99,0001.36,0000.86
2023-12-22 13:17:00,SystemResetWarning,0832.0,5.00,000.00,022.0,020.9,000.0,030.4,023.2,14.0,0000.0,0000.98,0001.38,0000.84
2023-12-22 13:18:00,SystemResetWarning,0832.0,5.00,000.00,022.0,020.9,000.0,030.4,023.2,14.0,0000.0,0000.98,0001.40,0000.84
2023-12-22 13:19:00,SystemResetWarning,0832.0,5.00,000.00,021.9,020.9,000.0,030.4,023.2,14.1,0000.0,0000.97,0001.41,0000.82
2023-12-22 13:20:00,SystemResetWarning,0832.1,5.00,000.00,021.9,020.9,000.0,030.4,023.3,14.1,0000.0,0000.97,0001.43,0000.82
2023-12-22 13:21:00,SystemResetWarning,0832.1,5.01,000.00,021.9,020.9,000.0,030.4,023.3,14.0,0000.0,0000.99,0001.47,0000.83
2023-12-22 13:22:00,SystemResetWarning,0832.1,5.00,000.00,021.9,020.9,000.0,030.4,023.3,14.0,0000.0,0001.00,0001.50,0000.83
2023-12-22 13:23:00,SystemResetWarning,0832.1,5.00,000.00,021.9,020.9,000.0,030.4,023.3,14.0,0000.0,0001.01,0001.51,0000.83
2023-12-22 13:24:00,SystemResetWarning,0832.1,5.00,000.00,021.9,020.9,000.0,030.3,023.3,13.9,0000.0,0001.00,0001.52,0000.82
2023-12-22 13:25:00,SystemResetWarning,0832.1,5.00,000.00,021.9,020.9,000.0,030.3,023.4,14.0,0000.0,0001.03,0001.61,0000.82
2023-12-22 13:26:00,SystemResetWarning,0832.1,5.00,000.00,021.9,020.9,000.0,030.3,023.3,14.3,0000.0,0001.03,0001.59,0000.80
2023-12-22 13:27:00,SystemResetWarning,0832.1,5.01,000.00,022.0,021.0,000.0,030.3,023.4,14.4,0000.0,0000.99,0001.53,0000.77
2023-12-22 13:28:00,SystemResetWarning,0832.2,5.00,000.00,022.0,021.0,000.0,030.3,023.3,14.3,0000.0,0001.00,0001.54,0000.78
2023-12-22 13:29:00,SystemResetWarning,0832.1,5.00,000.00,022.0,021.0,000.0,030.3,023.3,14.4,0000.0,0001.00,0001.56,0000.78
2023-12-22 13:30:00,SystemResetWarning,0832.1,5.00,000.00,021.9,021.0,000.0,030.3,023.3,14.2,0000.0,0001.00,0001.50,0000.79
2023-12-22 13:31:00,SystemResetWarning,0832.1,5.00,000.00,022.0,021.0,000.0,030.3,023.4,14.2,0000.0,0000.98,0001.44,0000.79
2023-12-22 13:32:00,SystemResetWarning,0832.1,5.00,000.00,022.0,021.0,000.0,030.3,023.3,14.2,0000.0,0000.99,0001.44,0000.79
2023-12-22 13:33:00,SystemResetWarning,0832.1,5.00,000.00,022.0,021.0,000.0,030.3,023.3,14.1,0000.0,0000.99,0001.45,0000.79
2023-12-22 13:34:00,SystemResetWarning,0832.1,5.00,000.00,021.9,021.1,000.0,030.3,023.3,14.1,0000.0,0000.98,0001.39,0000.79
2023-12-22 13:35:00,SystemResetWarning,0832.0,4.99,000.00,021.9,021.1,000.0,030.3,023.3,14.2,0000.0,0000.99,0001.41,0000.79
2023-12-22 13:36:00,SystemResetWarning,0832.0,5.00,000.00,022.0,021.1,000.0,030.3,023.3,14.2,0000.0,0000.98,0001.38,0000.79
2023-12-22 13:37:00,SystemResetWarning,0832.1,5.00,000.00,021.9,021.1,000.0,030.3,023.3,14.3,0000.0,0000.96,0001.34,0000.78
2023-12-22 13:38:00,SystemResetWarning,0832.1,5.00,000.00,021.9,021.1,000.0,030.3,023.3,14.2,0000.0,0000.96,0001.35,0000.78
2023-12-22 13:39:00,SystemResetWarning,0832.1,5.00,000.00,022.0,021.1,000.0,030.3,023.3,14.2,0000.0,0000.96,0001.36,0000.78
2023-12-22 13:40:00,SystemResetWarning,0832.1,5.00,000.00,022.0,021.1,000.0,030.3,023.3,14.2,0000.0,0000.95,0001.30,0000.78
2023-12-22 13:41:00,SystemResetWarning,0832.1,5.00,000.00,022.0,021.1,000.0,030.3,023.4,14.2,0000.0,0000.98,0001.34,0000.81
2023-12-22 13:42:00,SystemResetWarning,0832.1,5.00,000.00,022.0,021.1,000.0,030.3,023.3,14.2,0000.0,0001.07,0001.49,0000.87
2023-12-22 13:43:00,SystemResetWarning,0832.1,5.00,000.00,022.0,021.2,000.0,030.3,023.4,14.3,0000.0,0001.20,0002.25,0000.97
2023-12-22 13:44:00,SystemResetWarning,0832.1,4.99,000.00,022.0,021.2,000.0,030.3,023.4,14.2,0000.0,0001.29,0002.77,0001.06
2023-12-22 13:45:00,SystemResetWarning,0832.1,4.99,000.00,022.0,021.2,000.0,030.3,023.4,14.2,0000.0,0001.35,0002.83,0001.13
2023-12-22 13:46:00,SystemResetWarning,0832.1,4.99,000.00,022.0,021.2,000.0,030.3,023.4,14.2,0000.0,0001.38,0002.83,0001.18
2023-12-22 13:47:00,SystemResetWarning,0832.1,5.00,000.00,022.0,021.2,000.0,030.3,023.4,14.2,0000.0,0001.43,0003.58,0001.23
2023-12-22 13:48:00,SystemResetWarning,0832.1,5.00,000.00,022.0,021.2,000.0,030.3,023.4,14.2,0000.0,0001.47,0004.97,0001.28
2023-12-22 13:49:00,SystemResetWarning,0832.0,5.00,000.00,022.0,021.2,000.0,030.3,023.4,14.3,0000.0,0001.57,0005.17,0001.39
2023-12-22 13:50:00,SystemResetWarning,0832.0,5.00,000.00,022.0,021.2,000.0,030.3,023.4,14.2,0000.0,0001.70,0005.44,0001.49
2023-12-22 13:51:00,SystemResetWarning,0832.0,5.01,000.00,022.0,021.2,000.0,030.3,023.4,14.2,0000.0,0001.83,0005.62,0001.59
2023-12-22 13:52:00,SystemResetWarning,0832.0,5.00,000.00,022.0,021.2,000.0,030.3,023.4,14.1,0000.0,0001.90,0005.74,0001.64
2023-12-22 13:53:00,SystemResetWarning,0832.0,5.00,000.00,022.0,021.2,000.0,030.3,023.4,14.1,0000.0,0001.92,0005.74,0001.66
2023-12-22 13:54:00,SystemResetWarning,0832.0,5.00,000.00,022.0,021.2,000.0,030.3,023.4,14.1,0000.0,0001.88,0005.24,0001.64
2023-12-22 13:55:00,SystemResetWarning,0831.9,5.00,000.00,022.0,021.2,000.0,030.3,023.4,14.1,0000.0,0001.92,0004.71,0001.67
2023-12-22 13:56:00,SystemResetWarning,0832.0,5.00,000.00,022.0,021.2,000.0,030.3,023.4,14.2,0000.0,0002.05,0004.95,0001.73
2023-12-22 13:57:00,SystemResetWarning,0831.9,5.00,000.00,022.0,021.2,000.0,030.3,023.4,14.2,0000.0,0002.15,0005.17,0001.78
2023-12-22 13:58:00,SystemResetWarning,0831.9,4.99,000.00,022.0,021.1,000.0,030.3,023.4,14.2,0000.0,0002.19,0004.77,0001.80
2023-12-22 13:59:00,SystemResetWarning,0831.9,5.00,000.00,022.0,021.1,000.0,030.3,023.4,14.2,0000.0,0002.20,0003.43,0001.81
